﻿測定場所 (Monitoring sites),日付 (Measurement date),時間 (Measurement time),線量率 最大値 (max) μGy/h,線量率 最小値 (min) μGy/h,線量率 平均値 (average) μGy/h,
江戸川 (Edogawa),2012-09-09,23:01～24:00,0.112,0.101,0.106,
江戸川 (Edogawa),2012-09-09,22:01～23:00,0.113,0.101,0.107,
江戸川 (Edogawa),2012-09-09,21:01～22:00,0.114,0.100,0.107,
江戸川 (Edogawa),2012-09-09,20:01～21:00,0.114,0.101,0.106,
江戸川 (Edogawa),2012-09-09,19:01～20:00,0.111,0.100,0.106,
江戸川 (Edogawa),2012-09-09,18:01～19:00,0.110,0.0999,0.106,
江戸川 (Edogawa),2012-09-09,17:01～18:00,0.111,0.100,0.105,
江戸川 (Edogawa),2012-09-09,16:01～17:00,0.110,0.0988,0.106,
江戸川 (Edogawa),2012-09-09,15:01～16:00,0.112,0.100,0.106,
江戸川 (Edogawa),2012-09-09,14:01～15:00,0.110,0.101,0.106,
江戸川 (Edogawa),2012-09-09,13:01～14:00,0.112,0.0991,0.106,
江戸川 (Edogawa),2012-09-09,12:01～13:00,0.112,0.0990,0.106,
江戸川 (Edogawa),2012-09-09,11:01～12:00,0.114,0.0999,0.105,
江戸川 (Edogawa),2012-09-09,10:01～11:00,0.111,0.0985,0.105,
江戸川 (Edogawa),2012-09-09,09:01～10:00,0.111,0.0994,0.105,
江戸川 (Edogawa),2012-09-09,08:01～09:00,0.111,0.0989,0.104,
江戸川 (Edogawa),2012-09-09,07:01～08:00,0.110,0.100,0.105,
江戸川 (Edogawa),2012-09-09,06:01～07:00,0.111,0.0966,0.105,
江戸川 (Edogawa),2012-09-09,05:01～06:00,0.112,0.0958,0.105,
江戸川 (Edogawa),2012-09-09,04:01～05:00,0.111,0.0996,0.105,
江戸川 (Edogawa),2012-09-09,03:01～04:00,0.112,0.0995,0.105,
江戸川 (Edogawa),2012-09-09,02:01～03:00,0.110,0.0984,0.105,
江戸川 (Edogawa),2012-09-09,01:01～02:00,0.113,0.0999,0.105,
江戸川 (Edogawa),2012-09-09,00:01～01:00,0.112,0.100,0.105,
江戸川 (Edogawa),2012-09-08,23:01～24:00,0.112,0.0989,0.105,
江戸川 (Edogawa),2012-09-08,22:01～23:00,0.111,0.0994,0.105,
江戸川 (Edogawa),2012-09-08,21:01～22:00,0.112,0.0997,0.104,
江戸川 (Edogawa),2012-09-08,20:01～21:00,0.112,0.0986,0.104,
江戸川 (Edogawa),2012-09-08,19:01～20:00,0.111,0.0976,0.105,
江戸川 (Edogawa),2012-09-08,18:01～19:00,0.112,0.0990,0.105,
江戸川 (Edogawa),2012-09-08,17:01～18:00,0.112,0.101,0.106,
江戸川 (Edogawa),2012-09-08,16:01～17:00,0.113,0.0992,0.106,
江戸川 (Edogawa),2012-09-08,15:01～16:00,0.111,0.0994,0.106,
江戸川 (Edogawa),2012-09-08,14:01～15:00,0.115,0.100,0.106,
江戸川 (Edogawa),2012-09-08,13:01～14:00,0.111,0.100,0.105,
江戸川 (Edogawa),2012-09-08,12:01～13:00,0.110,0.0995,0.105,
江戸川 (Edogawa),2012-09-08,11:01～12:00,0.112,0.0995,0.105,
江戸川 (Edogawa),2012-09-08,10:01～11:00,0.111,0.100,0.105,
江戸川 (Edogawa),2012-09-08,09:01～10:00,0.110,0.0995,0.105,
江戸川 (Edogawa),2012-09-08,08:01～09:00,0.112,0.0987,0.105,
江戸川 (Edogawa),2012-09-08,07:01～08:00,0.111,0.0994,0.105,
江戸川 (Edogawa),2012-09-08,06:01～07:00,0.109,0.0990,0.105,
江戸川 (Edogawa),2012-09-08,05:01～06:00,0.115,0.0994,0.106,
江戸川 (Edogawa),2012-09-08,04:01～05:00,0.109,0.100,0.105,
江戸川 (Edogawa),2012-09-08,03:01～04:00,0.112,0.0997,0.106,
江戸川 (Edogawa),2012-09-08,02:01～03:00,0.111,0.0998,0.105,
江戸川 (Edogawa),2012-09-08,01:01～02:00,0.111,0.100,0.105,
江戸川 (Edogawa),2012-09-08,00:01～01:00,0.113,0.0987,0.105,
江戸川 (Edogawa),2012-09-07,23:01～24:00,0.111,0.0990,0.105,
江戸川 (Edogawa),2012-09-07,22:01～23:00,0.110,0.100,0.105,
江戸川 (Edogawa),2012-09-07,21:01～22:00,0.115,0.0975,0.106,
江戸川 (Edogawa),2012-09-07,20:01～21:00,0.111,0.0995,0.105,
江戸川 (Edogawa),2012-09-07,19:01～20:00,0.111,0.100,0.105,
江戸川 (Edogawa),2012-09-07,18:01～19:00,0.112,0.0991,0.105,
江戸川 (Edogawa),2012-09-07,17:01～18:00,0.111,0.0970,0.103,
江戸川 (Edogawa),2012-09-07,16:01～17:00,0.109,0.0979,0.103,
江戸川 (Edogawa),2012-09-07,15:01～16:00,0.109,0.0964,0.103,
江戸川 (Edogawa),2012-09-07,14:01～15:00,0.112,0.0967,0.103,
江戸川 (Edogawa),2012-09-07,13:01～14:00,0.106,0.0970,0.103,
江戸川 (Edogawa),2012-09-07,12:01～13:00,0.108,0.0967,0.103,
江戸川 (Edogawa),2012-09-07,11:01～12:00,0.109,0.0976,0.103,
江戸川 (Edogawa),2012-09-07,10:01～11:00,0.108,0.0973,0.102,
江戸川 (Edogawa),2012-09-07,09:01～10:00,0.111,0.0943,0.103,
江戸川 (Edogawa),2012-09-07,08:01～09:00,0.109,0.0965,0.103,
江戸川 (Edogawa),2012-09-07,07:01～08:00,0.111,0.0967,0.105,
江戸川 (Edogawa),2012-09-07,06:01～07:00,0.110,0.101,0.104,
江戸川 (Edogawa),2012-09-07,05:01～06:00,0.110,0.0970,0.104,
江戸川 (Edogawa),2012-09-07,04:01～05:00,0.110,0.0969,0.103,
江戸川 (Edogawa),2012-09-07,03:01～04:00,0.108,0.0979,0.104,
江戸川 (Edogawa),2012-09-07,02:01～03:00,0.108,0.0976,0.103,
江戸川 (Edogawa),2012-09-07,01:01～02:00,0.109,0.0979,0.104,
江戸川 (Edogawa),2012-09-07,00:01～01:00,0.109,0.0984,0.103,
江戸川 (Edogawa),2012-09-06,23:01～24:00,0.111,0.0982,0.104,
江戸川 (Edogawa),2012-09-06,22:01～23:00,0.115,0.0993,0.106,
江戸川 (Edogawa),2012-09-06,21:01～22:00,0.115,0.101,0.108,
江戸川 (Edogawa),2012-09-06,20:01～21:00,0.113,0.0988,0.107,
江戸川 (Edogawa),2012-09-06,19:01～20:00,0.122,0.105,0.111,
江戸川 (Edogawa),2012-09-06,18:01～19:00,0.123,0.105,0.113,
江戸川 (Edogawa),2012-09-06,17:01～18:00,0.122,0.105,0.112,
江戸川 (Edogawa),2012-09-06,16:01～17:00,0.115,0.0982,0.106,
江戸川 (Edogawa),2012-09-06,15:01～16:00,0.112,0.0971,0.104,
江戸川 (Edogawa),2012-09-06,14:01～15:00,0.111,0.100,0.105,
江戸川 (Edogawa),2012-09-06,13:01～14:00,0.112,0.0997,0.106,
江戸川 (Edogawa),2012-09-06,12:01～13:00,0.111,0.101,0.105,
江戸川 (Edogawa),2012-09-06,11:01～12:00,0.112,0.101,0.106,
江戸川 (Edogawa),2012-09-06,10:01～11:00,0.112,0.100,0.106,
江戸川 (Edogawa),2012-09-06,09:01～10:00,0.112,0.100,0.107,
江戸川 (Edogawa),2012-09-06,08:01～09:00,0.112,0.0989,0.106,
江戸川 (Edogawa),2012-09-06,07:01～08:00,0.113,0.0996,0.106,
江戸川 (Edogawa),2012-09-06,06:01～07:00,0.111,0.0995,0.106,
江戸川 (Edogawa),2012-09-06,05:01～06:00,0.111,0.0970,0.106,
江戸川 (Edogawa),2012-09-06,04:01～05:00,0.110,0.0986,0.106,
江戸川 (Edogawa),2012-09-06,03:01～04:00,0.110,0.0984,0.105,
江戸川 (Edogawa),2012-09-06,02:01～03:00,0.112,0.0989,0.105,
江戸川 (Edogawa),2012-09-06,01:01～02:00,0.114,0.0975,0.105,
江戸川 (Edogawa),2012-09-06,00:01～01:00,0.111,0.0979,0.105,
江戸川 (Edogawa),2012-09-05,23:01～24:00,0.113,0.0996,0.106,
江戸川 (Edogawa),2012-09-05,22:01～23:00,0.111,0.0986,0.106,
江戸川 (Edogawa),2012-09-05,21:01～22:00,0.111,0.0996,0.105,
江戸川 (Edogawa),2012-09-05,20:01～21:00,0.117,0.0991,0.106,
江戸川 (Edogawa),2012-09-05,19:01～20:00,0.113,0.0990,0.106,
江戸川 (Edogawa),2012-09-05,18:01～19:00,0.110,0.100,0.105,
江戸川 (Edogawa),2012-09-05,17:01～18:00,0.112,0.0988,0.105,
江戸川 (Edogawa),2012-09-05,16:01～17:00,0.109,0.0999,0.104,
江戸川 (Edogawa),2012-09-05,15:01～16:00,0.111,0.0986,0.105,
江戸川 (Edogawa),2012-09-05,14:01～15:00,0.110,0.0959,0.105,
江戸川 (Edogawa),2012-09-05,13:01～14:00,0.110,0.100,0.106,
江戸川 (Edogawa),2012-09-05,12:01～13:00,,,点検中,
江戸川 (Edogawa),2012-09-05,11:01～12:00,,,点検中,
江戸川 (Edogawa),2012-09-05,10:01～11:00,0.117,0.107,0.111,
江戸川 (Edogawa),2012-09-05,09:01～10:00,0.121,0.105,0.113,
江戸川 (Edogawa),2012-09-05,08:01～09:00,0.118,0.108,0.114,
江戸川 (Edogawa),2012-09-05,07:01～08:00,0.120,0.108,0.114,
江戸川 (Edogawa),2012-09-05,06:01～07:00,0.122,0.108,0.114,
江戸川 (Edogawa),2012-09-05,05:01～06:00,0.124,0.107,0.113,
江戸川 (Edogawa),2012-09-05,04:01～05:00,0.120,0.107,0.113,
江戸川 (Edogawa),2012-09-05,03:01～04:00,0.125,0.109,0.114,
江戸川 (Edogawa),2012-09-05,02:01～03:00,0.120,0.106,0.113,
江戸川 (Edogawa),2012-09-05,01:01～02:00,0.117,0.105,0.112,
江戸川 (Edogawa),2012-09-05,00:01～01:00,0.122,0.107,0.113,
江戸川 (Edogawa),2012-09-04,23:01～24:00,0.120,0.104,0.113,
江戸川 (Edogawa),2012-09-04,22:01～23:00,0.122,0.108,0.116,
江戸川 (Edogawa),2012-09-04,21:01～22:00,0.126,0.110,0.119,
江戸川 (Edogawa),2012-09-04,20:01～21:00,0.122,0.0981,0.112,
江戸川 (Edogawa),2012-09-04,19:01～20:00,0.121,0.108,0.114,
江戸川 (Edogawa),2012-09-04,18:01～19:00,0.122,0.108,0.115,
江戸川 (Edogawa),2012-09-04,17:01～18:00,0.122,0.108,0.115,
江戸川 (Edogawa),2012-09-04,16:01～17:00,0.122,0.107,0.114,
江戸川 (Edogawa),2012-09-04,15:01～16:00,0.123,0.107,0.114,
江戸川 (Edogawa),2012-09-04,14:01～15:00,0.123,0.108,0.114,
江戸川 (Edogawa),2012-09-04,13:01～14:00,0.120,0.106,0.113,
江戸川 (Edogawa),2012-09-04,12:01～13:00,0.121,0.106,0.113,
江戸川 (Edogawa),2012-09-04,11:01～12:00,0.119,0.108,0.114,
江戸川 (Edogawa),2012-09-04,10:01～11:00,0.119,0.107,0.113,
江戸川 (Edogawa),2012-09-04,09:01～10:00,0.118,0.105,0.113,
江戸川 (Edogawa),2012-09-04,08:01～09:00,0.118,0.106,0.113,
江戸川 (Edogawa),2012-09-04,07:01～08:00,0.117,0.106,0.112,
江戸川 (Edogawa),2012-09-04,06:01～07:00,0.118,0.106,0.112,
江戸川 (Edogawa),2012-09-04,05:01～06:00,0.117,0.106,0.112,
江戸川 (Edogawa),2012-09-04,04:01～05:00,0.118,0.105,0.113,
江戸川 (Edogawa),2012-09-04,03:01～04:00,0.118,0.107,0.113,
江戸川 (Edogawa),2012-09-04,02:01～03:00,0.122,0.108,0.114,
江戸川 (Edogawa),2012-09-04,01:01～02:00,0.118,0.108,0.113,
江戸川 (Edogawa),2012-09-04,00:01～01:00,0.118,0.108,0.114,
江戸川 (Edogawa),2012-09-03,23:01～24:00,0.120,0.108,0.114,
江戸川 (Edogawa),2012-09-03,22:01～23:00,0.122,0.110,0.116,
江戸川 (Edogawa),2012-09-03,21:01～22:00,0.121,0.109,0.115,
江戸川 (Edogawa),2012-09-03,20:01～21:00,0.122,0.108,0.115,
江戸川 (Edogawa),2012-09-03,19:01～20:00,0.121,0.108,0.115,
江戸川 (Edogawa),2012-09-03,18:01～19:00,0.121,0.109,0.115,
江戸川 (Edogawa),2012-09-03,17:01～18:00,0.120,0.109,0.115,
江戸川 (Edogawa),2012-09-03,16:01～17:00,0.122,0.106,0.115,
江戸川 (Edogawa),2012-09-03,15:01～16:00,0.123,0.106,0.115,
江戸川 (Edogawa),2012-09-03,14:01～15:00,0.124,0.110,0.115,
江戸川 (Edogawa),2012-09-03,13:01～14:00,0.119,0.110,0.114,
江戸川 (Edogawa),2012-09-03,12:01～13:00,0.123,0.108,0.115,
江戸川 (Edogawa),2012-09-03,11:01～12:00,0.125,0.108,0.114,
江戸川 (Edogawa),2012-09-03,10:01～11:00,0.122,0.109,0.115,
江戸川 (Edogawa),2012-09-03,09:01～10:00,0.123,0.109,0.115,
江戸川 (Edogawa),2012-09-03,08:01～09:00,0.120,0.106,0.114,
江戸川 (Edogawa),2012-09-03,07:01～08:00,0.120,0.106,0.114,
江戸川 (Edogawa),2012-09-03,06:01～07:00,0.120,0.107,0.114,
江戸川 (Edogawa),2012-09-03,05:01～06:00,0.120,0.107,0.114,
江戸川 (Edogawa),2012-09-03,04:01～05:00,0.122,0.109,0.115,
江戸川 (Edogawa),2012-09-03,03:01～04:00,0.121,0.107,0.114,
江戸川 (Edogawa),2012-09-03,02:01～03:00,0.122,0.109,0.115,
江戸川 (Edogawa),2012-09-03,01:01～02:00,0.120,0.108,0.115,
江戸川 (Edogawa),2012-09-03,00:01～01:00,0.120,0.107,0.114,
